Notice: Undefined index: language in /home/spanairv/public_html/vam/index.php on line 25
Spanair Virtual

 INFORMACIÓN METAR y TAF
METAR FOR LEZL
ADDS - METARS form results

(0629 UTC 21 March 2019)
Data provider http://aviationweather.gov/metar/data/
 
METAR text: LEZL 210600Z 06008KT CAVOK 10/06 Q1025 NOSIG
Conditions at: LEZL (SEVILLA (CIV/MIL, ES) observed 0600 UTC 21 March 2019
Temperature: 10.0°C (50°F)
Dewpoint: 6.0°C (43°F) [RH = 76%]
Pressure (altimeter): 30.27 inches Hg (1025.0 mb)
Winds: from the ENE (60 degrees) at 9 MPH (8 knots; 4.1 m/s)
Visibility: 6 or more miles (10+ km)
Ceiling: ceiling and visibility are OK
Clouds: unknown
Weather: no significant weather observed at this time

METAR text: LEZL 210530Z 07005KT CAVOK 10/06 Q1025 NOSIG
Conditions at: LEZL (SEVILLA (CIV/MIL, ES) observed 0530 UTC 21 March 2019
Temperature: 10.0°C (50°F)
Dewpoint: 6.0°C (43°F) [RH = 76%]
Pressure (altimeter): 30.27 inches Hg (1025.0 mb)
Winds: from the ENE (70 degrees) at 6 MPH (5 knots; 2.6 m/s)
Visibility: 6 or more miles (10+ km)
Ceiling: ceiling and visibility are OK
Clouds: unknown
Weather: no significant weather observed at this time

Forecast for: LEZL (SEVILLA (CIV/MIL, ES)
Text: TAF LEZL 210200Z 2103/2203 06008KT CAVOK TX21/2115Z TN08/2107Z
Forecast period: 0300 UTC 21 March 2019 to 0300 UTC 22 March 2019
Forecast type: FROM: standard forecast or significant change
Winds: from the ENE (60 degrees) at 9 MPH (8 knots; 4.1 m/s)
Visibility: 6 or more miles 10+ km)
Ceiling: unknown
Clouds: missing
Weather: no significant weather forecast for this period

 MAPA DE AEROPUERTO

 INFORMACIÓN DE PISTA
Pista 09 Longitud 11024 ft Ancho 148 ft
Elevación 83 ft Umbral desplazado 0 ft Rumbo de pista 90
Pista 27 Longitud 11024 ft Ancho 148 ft
Elevación 111 ft Umbral desplazado 0 ft Rumbo de pista 270

 FRECUANCIAS DEL AEROPUERTO
Tipo APP Nombre APP Frecuencia 120 MHZ
Tipo ATIS Nombre ATIS Frecuencia 118.175 MHZ
Tipo GND Nombre GND Frecuencia 121.7 MHZ
Tipo TWR Nombre TWR Frecuencia 118.1 MHZ

 RADIO AYUDAS DEL AEROPUERTO
Tipo NDB Nombre Sevilla Frecuencia 420 KHZ
Tipo VOR-DME Nombre Sevilla Frecuencia 113700 KHZ





VAM [v2.6.2]

Normativa | Spanair Virtual © 2017 | Customized by JZ © 2017 for Spanair Virtual